sat.trackr.live / text

‹ back to catalog

STARLINK-32409

NORAD 61591 · 2024-187T

PAYLOAD ACTIVE UNKNOWN

§ Identity

Operator
Country
US
Launch date
2024-10-18
Launch site
AFETR
Launch vehicle
Mass (kg)
RCS (m²)

Purposes: comms

External: N2YO · Heavens-Above · Gunter

§ Orbital elements

Epoch: 2026-05-25T00:52:11.409888Z

Period
93.90 min
Inclination
53.1607°
Eccentricity
0.0000491
Mean motion
15.33548547 rev/d
Perigee alt
464.9 km
Apogee alt
465.6 km
Semi-major
6,843.4 km
B*
8.4528e-6
RAAN
55.4181°
Arg perigee
85.7317°
Mean anomaly
274.3741°
Rev number
9,098

§ Raw data

STARLINK-324091 61591U 24187T   26145.03624317 -.00000094  00000+0  84528-5 0  99932 61591  53.1607  55.4181 0000491  85.7317 274.3741 15.33548547 90984

JSON: /api/v1/satellites/61591 · /tle

For live sub-satellite position, see the globe view (requires WebGL).

§ Visibility from observer

Set your observer location to see the next 7 days of passes ≥ 10°. The values pass through the URL so the page stays shareable.

No JS? Fill the form by hand. The geolocation button needs JavaScript.